Matias Valdes

Recruteur - Universidad Catolica
23 Sept 2027
Jeudi
Processus

Personnalité

Adaptabilité (1) Ambition (3) Controverse (11) Loyauté (7) Pression (6) Professionnalisme (18) Sportivité (17) Tempérament (5)

Profil

Style d'entraînement Démocratique
Diplôme Continental C
Détermination 7
Gestion des joueurs 13
Motivation 11
Discipline 8
Satisfaction professionnelle
85%
Fatigue
0%
Rôle Recruteur
Salaire 68.8K p/s
Contrat 14.03.2029

Performance

Comportement Bon
Efficacité de l'entraînement
43%
Développement des joueurs
50%
Prévention des blessures
65%
Mise en place tactique
35%

Événements récents

A participé à une réunion de recrutement maintenant
A participé à une réunion de recrutement 7j
A recommandé une cible de transfert 7j
A participé à une réunion de recrutement 7j
A participé à une réunion de recrutement 14j
A recommandé une cible de transfert 14j
A participé à une réunion de recrutement 14j
A participé à une réunion de recrutement 21j

Suivi en cours

91
Joueur Club Statut Capacité Confiance Observé Dernière observation Dernier vote
Antony Alonso Deportivo Riestra Actif 118 / 115 40% 1 23.12.2026 -
Mario Stroeykens Anderlecht Actif 136 / 142 40% 1 21.12.2026 -
Facundo Juárez San Luis Actif 102 / 106 62% 1 07.12.2026 Approuver
Santiago Montiel Independiente Actif 119 / 117 40% 2 30.11.2026 -
Marcelino Moreno Lanús Actif 132 / 119 40% 1 30.11.2026 -
Lukáš Červ Viktoria Plzen Actif 139 / 126 40% 1 28.11.2026 -
Rodrigo Herrera Newell's Old Boys Actif 124 / 118 40% 1 28.11.2026 -
César Ibáñez Huracán Actif 134 / 119 40% 1 26.11.2026 -
Renzo Tesuri Atlético Tucumán Actif 120 / 130 40% 1 26.11.2026 -
Rashid Rashid Sparta Prague Actif 127 / 142 40% 3 25.11.2026 -
Bamba Dieng Crvena Zvezda Actif 133 / 122 40% 2 25.11.2026 -
Julián Quiñones Lokomotiv Moscow Actif 135 / 136 40% 3 24.11.2026 -
Rubén Duarte Legia Actif 123 / 120 40% 1 24.11.2026 -
Ruben van Bommel Ferencvaros Actif 122 / 135 40% 1 23.11.2026 -
Nicolás Tripichio San Lorenzo Actif 132 / 121 40% 2 21.11.2026 Plus d'infos
Leandro Lozano Boca Juniors Actif 123 / 136 40% 3 21.11.2026 -
Nazareno Colombo Racing Club Actif 127 / 119 40% 1 21.11.2026 -
Marquinhos Spartak Moscow Actif 126 / 125 40% 1 21.11.2026 -
Juan Saborido Platense Actif 117 / 114 40% 1 18.11.2026 -
Facundo Zabala Independiente Actif 126 / 112 40% 1 16.11.2026 -
Martín Garay Tigre Actif 125 / 126 40% 1 16.11.2026 -
Razvan Balasa Crvena Zvezda Actif 155 / 157 40% 2 13.11.2026 -
Santiago González Tigre Actif 121 / 130 40% 1 10.11.2026 -
Lucas Carrizo Newell's Old Boys Actif 119 / 117 40% 1 10.11.2026 -
Adrián Spörle Belgrano Actif 112 / 132 40% 1 09.11.2026 -
Emanuel Coronel Rosario Central Actif 128 / 118 40% 1 09.11.2026 Plus d'infos
Martín Ortega Newell's Old Boys Actif 113 / 111 40% 1 07.11.2026 -
Santiago Longo Belgrano Actif 123 / 128 40% 1 06.11.2026 -
Juan Infante Atlético Tucumán Actif 116 / 129 40% 1 06.11.2026 -
Ulises Ortegoza Talleres Actif 115 / 133 40% 2 05.11.2026 -
Joaquín García Vélez Actif 126 / 125 40% 2 05.11.2026 -
Derensili Sanches Fernandes Huddersfield Town Actif 113 / 139 40% 1 05.11.2026 -
Agustín Cardozo Lanús Actif 127 / 134 40% 1 03.11.2026 -
Ulises Sánchez Gimnasia y Esgrima Actif 133 / 117 40% 1 31.10.2026 -
Tomás Conechny Racing Club Actif 121 / 118 40% 1 30.10.2026 -
Alexey Miranchuk St. Gallen Actif 141 / 123 40% 1 29.10.2026 -
Lewis Morgan SuperSport United Actif 120 / 121 40% 1 24.10.2026 -
Ivan Toney Al-Ahli Actif 150 / 143 40% 4 23.10.2026 -
Gastón Lodico Racing Club Actif 121 / 118 40% 2 23.10.2026 -
Aral Şimşir Trabzonspor Actif 119 / 114 40% 1 23.10.2026 -
Matko Miljevic Racing Club Actif 119 / 138 40% 1 23.10.2026 -
Iván Villalba Independiente Rivadavia Actif 129 / 119 40% 1 20.10.2026 -
Tiago Palacios Estudiantes Actif 134 / 132 40% 1 18.10.2026 -
Leo Ceara Kashima Antlers Actif 136 / 127 40% 1 18.10.2026 -
Ola Brynhildsen Bodo/Glimt Actif 138 / 127 40% 1 18.10.2026 -
Felipe Peña Biafore Lanús Actif 121 / 125 40% 1 16.10.2026 -
Tomás Silva Platense Actif 120 / 134 40% 1 16.10.2026 -
Gabriel Neves Estudiantes Actif 132 / 117 40% 1 15.10.2026 -
Lucas Souto Defensa y Justicia Actif 133 / 112 40% 1 15.10.2026 -
Yusuke Matsuo Esteghlal Actif 118 / 122 40% 1 14.10.2026 -
Erison Kawasaki Frontale Actif 115 / 118 40% 2 10.10.2026 -
Mojmír Chytil NK Maribor Actif 143 / 145 40% 1 10.10.2026 -
Franco Ibarra Rosario Central Actif 133 / 122 40% 1 06.10.2026 -
Antonio Galeano Remo Stars Actif 114 / 120 40% 2 05.10.2026 -
Leonardo Godoy Independiente Actif 127 / 134 40% 1 05.10.2026 -
Nahuel Banegas Tigre Actif 131 / 118 40% 1 05.10.2026 -
Sergi Palencia Los Angeles Football Club Actif 138 / 142 40% 2 03.10.2026 -
Jonathan Bamba Chicago Fire Actif 127 / 126 40% 2 03.10.2026 -
Wessam Abou Ali Columbus Crew Actif 140 / 132 40% 1 03.10.2026 -
Kein Sato FC Tokyo Actif 132 / 137 40% 1 29.09.2026 -
Takuma Asano Sanfrecce Hiroshima Actif 129 / 140 40% 5 28.09.2026 -
Philip Zinckernagel Chicago Fire Actif 142 / 146 40% 1 25.09.2026 -
Bénie Traoré New York City Actif 125 / 113 40% 2 24.09.2026 -
Reda Khadra Qarabag Actif 128 / 129 40% 1 24.09.2026 -
Elias Achouri San Diego Football Club Actif 127 / 123 40% 1 23.09.2026 -
Luciano Gondou CSKA Moscow Actif 117 / 138 40% 1 22.09.2026 -
Antony Portland Timbers Actif 140 / 116 40% 1 21.09.2026 -
Martín Ojeda Orlando City Actif 131 / 119 40% 1 20.09.2026 -
Ryan Gauld Vancouver Whitecaps Actif 147 / 119 40% 1 19.09.2026 -
Anton Salétros Chicago Fire Actif 119 / 140 40% 1 19.09.2026 -
Sergio Reguilón Inter Miami CF Actif 136 / 130 40% 1 18.09.2026 -
Pavel Bucha FC Cincinnati Actif 132 / 115 40% 1 18.09.2026 -
Steven Alzate Atlanta United FC Actif 129 / 132 40% 1 17.09.2026 -
Breel Embolo Atlanta United FC Actif 136 / 129 40% 1 17.09.2026 -
Franco Cristaldo Talleres Actif 118 / 123 40% 1 14.09.2026 -
Francisco González Metilli Belgrano Actif 119 / 113 40% 1 12.09.2026 -
Aliou Dieng Valencia Actif 124 / 135 40% 1 12.09.2026 -
Felipe Augusto Zenit Actif 129 / 122 40% 1 07.09.2026 -
Myrto Uzuni Austin FC Actif 116 / 146 40% 1 31.08.2026 -
Maurits Kjærgaard Red Bull Salzburg Actif 140 / 132 40% 1 30.08.2026 -
Luka Jović AEK Actif 123 / 118 40% 1 29.08.2026 -
Sam Surridge Nashville SC Actif 118 / 137 40% 1 29.08.2026 -
Youssef En-Nesyri Al-Ittihad Actif 127 / 135 40% 3 26.08.2026 -
Musa Barrow Al-Khaleej Actif 131 / 128 40% 1 15.08.2026 -
Kerem Aktürkoğlu Fenerbahce Actif 126 / 147 40% 1 14.08.2026 -
Marcel Hartel St. Louis CITY SC Actif 128 / 142 40% 1 07.08.2026 -
Bryan Ramírez FC Cincinnati Actif 133 / 121 40% 1 04.08.2026 -
Lasse Berg Johnsen Sporting Kansas City Actif 116 / 106 40% 1 04.08.2026 -
Cristian Roldan Seattle Sounders Actif 135 / 112 40% 1 03.08.2026 -
Japhet Sery Larsen Philadelphia Union Actif 137 / 117 40% 1 03.08.2026 -
Alberto Reina Oviedo Actif 127 / 113 40% 1 01.08.2026 -